Wind_Speed
57 59 57 56 53 52 52 47 41 39 39 35 31 28 25 24 23 30 41 57 75 82 81 80 77 101 104 102 100 99 93 87 82 81 80 84 87 79 72 70 64 57 57 57 54
61 64 61 60 58 57 54 53 50 47 42 40 38 32 31 28 26 36 32 33 60 80 87 85 86 86 104 104 103 100 94 90 88 90 89 90 87 80 76 72 66 61 56 56 53
65 67 66 64 64 64 60 57 56 54 48 48 44 37 36 34 34 37 35 39 39 64 85 89 88 87 90 105 100 100 96 96 97 96 97 96 90 88 85 78 72 66 60 54 53
72 74 72 71 71 69 66 66 63 58 57 55 53 44 39 37 39 46 39 46 42 41 65 87 92 90 89 94 108 105 101 101 103 103 101 98 96 93 91 83 78 72 66 55 53
74 76 77 76 78 79 78 70 67 65 62 63 60 55 45 42 46 49 49 41 45 45 44 72 90 96 94 94 99 110 106 108 107 106 103 103 101 93 95 85 81 75 71 61 37
80 81 83 84 86 86 83 78 73 72 69 67 65 58 49 33 58 50 50 46 42 48 51 50 74 94 101 101 97 95 113 113 114 108 108 104 104 101 95 92 84 81 77 68 67
89 89 92 90 96 91 88 83 83 79 76 76 68 61 51 45 64 57 49 52 49 52 54 56 59 81 93 101 102 98 97 115 113 111 112 110 107 100 99 96 91 87 82 75 76
93 92 95 99 101 101 97 89 88 85 81 78 75 67 50 60 68 64 65 55 53 57 60 60 63 62 85 95 102 104 99 98 112 116 113 116 106 104 104 100 97 94 89 84 84
99 99 104 104 114 107 98 92 93 88 82 82 76 68 56 70 73 81 65 54 61 61 64 64 61 61 67 80 93 102 100 99 102 111 122 119 109 109 108 105 102 101 97 92 89
104 106 112 117 119 105 94 94 97 92 88 86 81 73 69 79 83 84 72 69 63 70 66 59 55 54 57 56 68 85 100 108 106 106 119 124 112 112 113 110 108 104 102 98 96
111 111 119 130 119 105 98 94 92 86 83 79 77 74 77 81 79 85 79 78 74 72 61 62 62 51 52 50 52 72 94 108 115 115 115 122 122 113 116 114 110 110 105 104 100
119 120 124 127 110 102 92 75 67 62 57 59 63 61 74 92 85 90 87 82 75 66 67 59 55 60 65 59 60 63 80 100 115 118 116 113 118 121 116 117 113 111 109 105 106
124 127 135 117 107 90 73 61 54 46 46 58 47 53 74 73 82 96 89 86 80 75 67 56 60 67 66 65 63 64 66 83 102 117 120 116 112 119 121 115 114 112 109 108 106
128 128 131 111 93 72 62 50 44 39 39 39 36 45 58 51 68 89 91 88 83 72 69 66 66 69 69 66 65 62 62 74 88 106 115 122 113 107 114 122 120 114 112 106 109
129 135 120 98 77 64 52 43 34 29 24 29 27 38 41 46 75 72 86 87 80 71 69 62 63 64 64 63 62 59 71 74 79 90 105 113 114 112 114 113 114 114 110 112 111
131 129 112 87 69 55 45 36 26 21 20 21 24 28 30 45 54 70 81 84 83 78 74 74 71 67 64 66 64 69 70 69 73 78 81 96 109 116 113 108 109 110 115 113 115
135 119 102 77 66 52 40 29 19 14 10 8 14 20 34 42 52 64 77 83 84 81 73 68 65 64 65 66 59 59 58 61 62 62 69 84 92 100 113 114 113 108 108 114 119
124 111 91 71 59 46 34 24 17 8 4 4 6 10 27 37 47 62 70 77 75 71 71 66 58 54 51 43 46 50 54 54 55 65 72 75 69 84 97 113 116 112 111 110 112
114 104 82 67 54 42 32 22 14 4 2 5 6 13 25 32 46 57 64 70 70 66 62 62 55 53 43 49 44 43 39 50 60 67 66 61 64 74 76 89 104 113 113 110 107
108 97 77 63 50 39 30 22 9 3 6 6 7 13 26 32 42 51 59 63 66 63 63 58 57 49 50 47 44 43 49 43 44 54 58 54 60 66 66 70 81 97 108 110 112
102 89 71 58 47 36 29 19 8 6 8 4 4 15 28 35 42 48 54 59 61 60 59 55 51 49 45 41 37 38 26 29 39 42 47 51 53 59 65 69 79 82 88 97 103
98 82 67 54 43 33 27 18 7 8 9 9 12 19 29 39 43 47 51 57 59 55 53 52 48 48 43 42 38 22 22 27 35 35 36 39 35 44 53 56 68 79 80 81 86
93 75 62 48 39 31 23 10 4 9 16 19 25 30 37 41 46 48 51 55 55 51 49 46 43 42 41 37 34 23 16 17 24 25 33 29 25 16 24 38 45 52 58 70 79
91 71 59 45 34 27 15 15 5 3 8 15 27 34 41 45 43 46 44 47 52 51 43 41 43 38 38 33 26 17 13 10 18 27 38 26 16 7 10 11 21 30 42 34 41
86 66 54 41 29 20 14 12 6 5 5 17 29 36 39 44 45 46 46 47 45 40 43 45 44 41 46 33 25 23 18 13 21 35 48 37 35 25 7 10 20 22 35 44 45
81 60 50 37 25 18 12 7 1 6 14 17 33 36 38 39 40 40 43 40 36 36 43 44 40 38 32 26 17 16 13 8 21 33 50 44 21 32 37 16 24 29 36 44 50
77 56 46 33 19 12 6 8 5 15 13 22 26 29 36 36 35 37 38 37 36 37 40 43 42 38 29 19 16 20 16 12 14 39 43 39 29 38 38 36 33 30 33 37 53
Wind_Direction
344 343 339 338 334 329 325 323 321 319 322 315 298 290 294 275 276 257 239 229 228 223 223 224 222 218 219 219 218 217 217 215 213 214 220 228 229 223 223 223 223 224 228 227 219
342 341 337 334 330 328 325 319 316 313 311 310 308 292 285 280 282 262 251 245 231 226 222 222 223 222 219 220 219 217 214 216 217 217 223 226 229 224 223 225 223 221 221 229 225
337 337 335 332 328 327 322 317 311 307 306 302 299 298 288 276 274 272 262 257 250 230 227 222 224 223 222 221 219 218 217 217 219 219 223 225 224 223 222 223 218 221 219 220 228
336 335 332 330 324 320 317 315 311 304 303 299 296 294 287 281 280 270 260 245 243 241 230 226 223 225 223 222 220 217 218 219 220 221 223 224 222 225 222 221 220 216 219 214 224
332 332 330 325 322 319 317 313 306 301 298 297 292 288 284 277 277 263 262 252 241 243 241 230 226 223 224 224 222 218 219 219 221 222 225 225 224 224 227 222 223 218 220 211 203
330 331 329 325 321 317 313 308 304 299 292 291 287 285 277 272 268 267 262 257 245 236 240 235 228 224 224 224 225 220 221 219 221 224 224 225 225 224 225 225 223 221 219 214 216
331 331 328 325 320 317 313 309 303 296 291 283 285 278 270 268 268 266 261 257 246 238 238 233 229 226 225 226 226 224 222 221 221 224 225 223 226 226 225 227 222 225 220 217 214
330 329 326 322 321 316 311 306 300 296 288 284 278 274 262 266 266 266 258 250 245 236 236 234 234 227 226 225 226 225 224 222 223 223 225 225 224 225 227 225 226 222 223 220 218
330 328 327 324 324 316 310 305 298 291 285 279 276 267 261 259 259 258 256 246 244 236 236 232 233 226 224 226 226 226 225 224 225 225 224 225 221 227 226 226 227 225 222 221 221
331 329 328 326 322 315 311 303 295 290 282 275 268 259 255 251 250 253 247 245 239 241 233 233 231 230 227 226 229 228 226 225 224 225 225 224 221 225 226 227 227 226 224 222 222
330 329 328 326 323 315 308 300 293 285 277 269 263 254 244 239 236 242 240 239 233 237 235 233 227 228 227 221 227 227 226 225 224 225 224 224 221 221 227 226 226 229 227 226 224
330 328 327 327 321 314 308 302 292 286 279 265 254 244 241 234 224 231 232 229 230 230 233 229 228 228 231 223 228 227 224 225 225 226 226 225 223 222 225 226 227 228 229 229 229
334 331 329 328 322 317 312 304 296 287 270 264 256 241 231 227 219 220 223 224 224 224 231 226 220 225 226 227 232 235 230 228 227 226 227 226 224 223 223 227 226 228 229 230 231
333 332 332 330 323 321 314 310 301 287 276 272 253 245 241 235 219 217 217 218 217 217 223 221 216 223 226 226 230 234 235 231 227 227 228 227 224 224 225 228 229 227 229 230 232
334 332 334 332 326 325 320 317 309 298 279 255 246 238 232 217 216 213 216 216 213 212 217 218 218 224 226 229 231 234 235 233 230 228 228 229 226 226 225 225 230 229 229 229 231
335 336 336 335 332 330 328 323 318 306 283 260 237 234 217 217 213 209 210 209 206 208 208 209 214 219 221 223 223 230 235 234 234 232 231 232 228 228 227 225 226 229 228 230 231
337 338 339 338 336 336 333 330 325 301 277 248 247 225 207 209 210 204 207 204 204 204 202 207 214 216 220 220 225 234 237 238 240 239 238 232 227 228 228 228 226 227 229 228 231
340 339 341 341 341 339 337 339 328 324 283 201 164 221 223 211 203 197 201 202 200 198 201 207 212 213 218 222 230 236 233 232 235 236 236 231 227 227 227 228 228 228 230 230 230
341 341 343 344 344 343 347 346 330 8 88 105 129 187 199 206 199 197 193 194 194 197 202 202 204 202 204 219 226 226 226 224 227 238 241 238 233 229 229 231 231 230 230 231 232
343 343 346 345 348 347 352 348 338 49 107 115 142 196 186 186 189 190 190 192 195 196 195 197 198 197 207 210 205 211 222 232 238 244 246 244 237 237 234 229 234 234 230 230 231
345 345 347 347 349 351 349 342 351 83 92 100 149 189 181 175 178 183 189 191 193 196 192 190 192 196 201 196 206 217 227 241 246 246 243 237 233 233 230 227 232 233 232 230 231
346 348 349 348 351 353 349 353 37 106 137 144 169 169 162 167 172 175 180 185 187 187 184 184 188 192 185 196 199 213 242 248 248 230 222 217 211 218 220 220 227 233 232 231 231
348 348 350 349 352 353 352 347 42 149 149 151 160 153 156 163 166 171 172 178 176 176 180 185 185 181 193 201 210 215 237 256 232 216 199 166 178 182 219 218 222 226 230 235 233
350 349 350 350 350 354 345 356 350 149 156 152 160 157 157 158 163 165 169 171 174 172 178 179 174 182 196 185 179 184 221 237 193 164 126 126 155 182 225 242 229 229 220 214 237
350 349 349 349 353 354 348 1 312 14 113 129 156 158 158 158 161 164 167 172 174 175 174 173 173 183 192 201 203 189 201 182 168 150 134 140 162 176 222 200 226 232 221 219 221
351 349 348 346 352 350 359 10 25 143 150 138 150 161 161 165 166 167 170 170 171 175 174 173 175 182 192 201 193 191 185 152 147 175 156 160 161 153 232 211 208 222 241 217 216
351 348 345 346 348 346 335 20 127 153 148 136 153 172 174 173 167 169 168 173 175 175 178 173 176 173 184 202 209 185 164 155 161 165 161 149 148 178 179 189 207 239 271 256 225
Height
10780 10773 10766 10760 10753 10746 10742 10739 10736 10732 10729 10726 10723 10722 10722 10722 10721 10720 10713 10722 10729 10739 10746 10751 10756 10761 10773 10787 10802 10810 10833 10852 10863 10862 10858 10845 10848 10870 10885 10891 10909 10923 10933 10941 10950
10769 10763 10755 10748 10742 10737 10730 10725 10722 10720 10716 10714 10712 10710 10710 10711 10710 10707 10708 10710 10711 10719 10725 10733 10740 10745 10760 10768 10784 10800 10824 10837 10840 10839 10834 10831 10843 10866 10873 10883 10901 10915 10923 10932 10943
10757 10749 10742 10734 10728 10723 10716 10711 10706 10702 10701 10699 10697 10696 10696 10699 10698 10690 10696 10696 10698 10703 10709 10719 10725 10736 10744 10752 10774 10791 10810 10813 10816 10819 10814 10818 10835 10848 10854 10867 10888 10905 10915 10925 10933
10743 10734 10725 10718 10711 10704 10699 10695 10689 10684 10681 10681 10680 10680 10681 10683 10682 10676 10677 10680 10686 10689 10694 10700 10711 10721 10730 10738 10748 10768 10785 10792 10796 10800 10798 10811 10825 10834 10843 10859 10875 10891 10901 10917 10924
10731 10721 10711 10702 10694 10685 10679 10674 10669 10664 10661 10659 10659 10660 10665 10668 10663 10658 10661 10666 10672 10675 10677 10681 10692 10700 10711 10719 10723 10752 10760 10770 10775 10782 10791 10800 10814 10827 10834 10857 10866 10886 10894 10909 10915
10715 10705 10694 10684 10673 10664 10656 10650 10644 10638 10636 10635 10636 10638 10644 10653 10632 10641 10645 10650 10653 10657 10659 10664 10668 10675 10685 10696 10710 10731 10733 10747 10759 10770 10776 10791 10802 10814 10827 10845 10860 10870 10881 10895 10904
10697 10686 10674 10662 10652 10639 10630 10621 10614 10608 10605 10604 10607 10612 10622 10633 10611 10618 10631 10630 10634 10636 10640 10644 10646 10660 10667 10679 10693 10709 10721 10737 10754 10760 10766 10781 10785 10814 10814 10827 10847 10852 10868 10880 10884
10680 10667 10654 10639 10624 10609 10597 10588 10578 10571 10568 10568 10571 10579 10595 10599 10589 10595 10597 10610 10612 10614 10616 10624 10630 10642 10656 10663 10670 10690 10707 10728 10737 10738 10754 10758 10790 10796 10798 10814 10829 10840 10850 10863 10872
10661 10646 10629 10608 10589 10570 10555 10545 10531 10525 10530 10528 10534 10539 10564 10562 10563 10553 10575 10591 10590 10593 10596 10605 10617 10629 10634 10648 10657 10673 10700 10709 10710 10724 10726 10737 10777 10773 10782 10795 10805 10821 10835 10847 10854
10636 10618 10598 10575 10551 10530 10517 10502 10482 10481 10482 10483 10487 10497 10519 10516 10525 10528 10549 10556 10568 10565 10577 10593 10608 10617 10627 10637 10649 10654 10666 10678 10690 10696 10702 10721 10751 10753 10761 10774 10788 10800 10820 10832 10840
10611 10591 10568 10541 10509 10486 10471 10455 10436 10431 10427 10429 10439 10452 10466 10473 10493 10497 10516 10525 10533 10546 10567 10577 10588 10608 10613 10620 10622 10628 10639 10647 10657 10662 10672 10695 10720 10735 10737 10754 10769 10781 10803 10817 10828
10586 10562 10533 10503 10469 10445 10424 10412 10398 10394 10395 10388 10388 10404 10414 10407 10450 10458 10480 10496 10515 10539 10543 10561 10586 10586 10588 10600 10603 10608 10614 10623 10634 10647 10661 10680 10703 10716 10721 10739 10755 10766 10783 10801 10809
10555 10527 10497 10464 10431 10406 10390 10378 10370 10369 10364 10344 10366 10374 10361 10381 10416 10422 10452 10473 10496 10512 10532 10551 10562 10560 10568 10580 10589 10594 10605 10609 10618 10627 10640 10657 10681 10698 10715 10718 10740 10755 10769 10783 10795
10526 10494 10462 10434 10399 10382 10363 10357 10348 10344 10342 10343 10349 10353 10356 10390 10398 10404 10428 10450 10475 10503 10511 10524 10540 10543 10553 10567 10572 10583 10586 10584 10597 10611 10624 10637 10668 10689 10704 10708 10709 10736 10755 10772 10778
10500 10466 10430 10404 10378 10361 10349 10339 10333 10329 10328 10326 10332 10332 10347 10366 10354 10400 10409 10433 10463 10484 10498 10521 10526 10535 10548 10560 10565 10571 10564 10570 10582 10593 10606 10626 10654 10671 10666 10690 10712 10730 10738 10749 10756
10476 10442 10409 10381 10363 10349 10337 10328 10322 10318 10316 10318 10320 10325 10337 10342 10360 10370 10393 10417 10438 10454 10475 10488 10498 10516 10532 10533 10543 10541 10549 10561 10569 10584 10610 10607 10629 10635 10661 10684 10689 10699 10719 10728 10738
10456 10423 10394 10370 10350 10339 10327 10320 10315 10309 10309 10312 10318 10323 10326 10334 10348 10365 10382 10402 10422 10440 10467 10480 10495 10509 10515 10523 10536 10538 10548 10557 10569 10584 10582 10579 10616 10624 10640 10653 10666 10682 10691 10704 10712
10438 10408 10382 10361 10346 10333 10322 10316 10311 10307 10307 10309 10313 10321 10327 10334 10346 10359 10380 10399 10419 10440 10454 10473 10491 10504 10515 10526 10532 10536 10538 10549 10558 10554 10554 10567 10603 10601 10613 10628 10645 10664 10674 10685 10698
10423 10398 10373 10355 10342 10329 10320 10314 10312 10308 10308 10312 10315 10320 10327 10337 10350 10362 10383 10400 10415 10437 10452 10467 10481 10489 10507 10509 10519 10525 10537 10537 10538 10540 10552 10574 10583 10590 10604 10613 10623 10642 10659 10671 10684
10414 10389 10368 10352 10339 10329 10321 10317 10312 10310 10311 10313 10317 10325 10330 10341 10353 10367 10386 10402 10415 10429 10443 10457 10467 10485 10490 10499 10509 10521 10516 10531 10538 10539 10545 10559 10567 10574 10591 10599 10605 10617 10633 10652 10665
10406 10384 10367 10351 10340 10330 10325 10321 10317 10315 10317 10321 10325 10331 10337 10345 10358 10372 10387 10401 10414 10429 10440 10452 10467 10475 10487 10502 10509 10515 10522 10520 10523 10528 10533 10543 10552 10564 10572 10583 10588 10596 10611 10626 10643
10400 10379 10364 10350 10340 10333 10327 10324 10323 10322 10324 10328 10333 10339 10346 10352 10362 10375 10389 10402 10415 10429 10443 10453 10463 10473 10489 10492 10501 10508 10511 10516 10514 10516 10522 10533 10543 10550 10558 10565 10572 10583 10599 10610 10626
10399 10376 10365 10352 10343 10336 10332 10330 10329 10329 10330 10332 10336 10344 10350 10358 10366 10376 10389 10403 10416 10430 10443 10454 10466 10477 10483 10493 10501 10504 10505 10509 10511 10512 10518 10527 10536 10544 10552 10559 10566 10576 10588 10598 10611
10392 10374 10363 10353 10346 10340 10336 10335 10334 10334 10336 10338 10343 10349 10355 10363 10373 10385 10398 10410 10418 10428 10442 10453 10464 10474 10482 10483 10491 10497 10500 10504 10505 10507 10514 10526 10535 10545 10551 10558 10565 10574 10584 10595 10602
10391 10374 10365 10357 10350 10345 10342 10340 10340 10342 10345 10351 10355 10359 10365 10370 10379 10390 10402 10413 10425 10436 10441 10453 10461 10468 10473 10482 10488 10491 10496 10503 10506 10509 10518 10530 10538 10552 10553 10557 10563 10570 10579 10588 10597
10391 10372 10365 10358 10353 10348 10347 10347 10347 10351 10356 10360 10365 10369 10375 10380 10388 10399 10409 10419 10429 10438 10444 10453 10462 10469 10476 10480 10486 10490 10496 10505 10507 10512 10521 10527 10538 10547 10553 10557 10560 10564 10569 10581 10587
10389 10375 10363 10361 10355 10351 10352 10352 10355 10359 10363 10367 10372 10376 10382 10387 10396 10404 10414 10422 10430 10440 10449 10455 10461 10469 10473 10479 10485 10489 10496 10503 10509 10515 10522 10525 10533 10545 10549 10555 10559 10564 10567 10574 10579